Year,Month,Day,Hour,Minute,Value (Times are PST for temperature in C)
2016,04,17,00,00,10.00
2016,04,17,00,01,10.00
2016,04,17,00,02,10.00
2016,04,17,00,03,10.00
2016,04,17,00,04,10.00
2016,04,17,00,05,10.00
2016,04,17,00,06,10.00
2016,04,17,00,07,10.00
2016,04,17,00,08,10.00
2016,04,17,00,09,10.00
2016,04,17,00,10,10.00
2016,04,17,00,11,10.00
2016,04,17,00,12,10.00
2016,04,17,00,13,10.00
2016,04,17,00,14,10.00
2016,04,17,00,15,10.00
2016,04,17,00,16,10.00
2016,04,17,00,17,10.00
2016,04,17,00,18,10.00
2016,04,17,00,19,10.00
2016,04,17,00,20,10.00
2016,04,17,00,21,10.00
2016,04,17,00,22,10.00
2016,04,17,00,23,10.00
2016,04,17,00,24,10.00
2016,04,17,00,25,9.90
2016,04,17,00,26,9.90
2016,04,17,00,27,10.00
2016,04,17,00,28,9.90
2016,04,17,00,29,10.00
2016,04,17,00,30,9.90
2016,04,17,00,31,9.90
2016,04,17,00,32,9.90
2016,04,17,00,33,10.00
2016,04,17,00,34,9.90
2016,04,17,00,35,9.90
2016,04,17,00,36,9.90
2016,04,17,00,37,9.90
2016,04,17,00,38,9.90
2016,04,17,00,39,9.90
2016,04,17,00,40,9.90
2016,04,17,00,41,9.90
2016,04,17,00,42,9.90
2016,04,17,00,43,9.90
2016,04,17,00,44,9.90
2016,04,17,00,45,10.00
2016,04,17,00,46,10.00
2016,04,17,00,47,10.00
2016,04,17,00,48,10.00
2016,04,17,00,49,10.00
2016,04,17,00,50,10.00
2016,04,17,00,51,9.90
2016,04,17,00,52,9.90
2016,04,17,00,53,10.00
2016,04,17,00,54,10.00
2016,04,17,00,55,10.00
2016,04,17,00,56,10.00
2016,04,17,00,57,10.00
2016,04,17,00,58,10.00
2016,04,17,00,59,10.00
2016,04,17,01,00,10.00
2016,04,17,01,01,10.00
2016,04,17,01,02,10.00
2016,04,17,01,03,10.00
2016,04,17,01,04,10.00
2016,04,17,01,05,10.00
2016,04,17,01,06,10.00
2016,04,17,01,07,10.00
2016,04,17,01,08,10.00
2016,04,17,01,09,10.00
2016,04,17,01,10,10.00
2016,04,17,01,11,10.00
2016,04,17,01,12,10.00
2016,04,17,01,13,10.00
2016,04,17,01,14,10.00
2016,04,17,01,15,10.00
2016,04,17,01,16,10.00
2016,04,17,01,17,10.00
2016,04,17,01,18,10.00
2016,04,17,01,19,10.00
2016,04,17,01,20,10.00
2016,04,17,01,21,10.00
2016,04,17,01,22,10.00
2016,04,17,01,23,9.90
2016,04,17,01,24,9.90
2016,04,17,01,25,9.90
2016,04,17,01,26,9.90
2016,04,17,01,27,9.90
2016,04,17,01,28,9.90
2016,04,17,01,29,9.90
2016,04,17,01,30,9.90
2016,04,17,01,31,9.90
2016,04,17,01,32,9.90
2016,04,17,01,33,9.90
2016,04,17,01,34,9.90
2016,04,17,01,35,9.90
2016,04,17,01,36,9.90
2016,04,17,01,37,9.90
2016,04,17,01,38,9.90
2016,04,17,01,39,9.90
2016,04,17,01,40,9.90
2016,04,17,01,41,9.90
2016,04,17,01,42,9.90
2016,04,17,01,43,9.90
2016,04,17,01,44,9.90
2016,04,17,01,45,9.90
2016,04,17,01,46,10.00
2016,04,17,01,47,10.00
2016,04,17,01,48,10.00
2016,04,17,01,49,9.90
2016,04,17,01,50,9.90
2016,04,17,01,51,10.00
2016,04,17,01,52,9.90
2016,04,17,01,53,9.90
2016,04,17,01,54,9.90
2016,04,17,01,55,9.90
2016,04,17,01,56,9.90
2016,04,17,01,57,9.90
2016,04,17,01,58,9.90
2016,04,17,01,59,9.90
2016,04,17,02,00,9.90
2016,04,17,02,01,9.90
2016,04,17,02,02,10.00
2016,04,17,02,03,10.00
2016,04,17,02,04,10.00
2016,04,17,02,05,9.90
2016,04,17,02,06,9.90
2016,04,17,02,07,10.00
2016,04,17,02,08,10.00
2016,04,17,02,09,10.00
2016,04,17,02,10,10.00
2016,04,17,02,11,10.00
2016,04,17,02,12,10.00
2016,04,17,02,13,10.00
2016,04,17,02,14,10.00
2016,04,17,02,15,10.00
2016,04,17,02,16,10.10
2016,04,17,02,17,10.10
2016,04,17,02,18,10.10
2016,04,17,02,19,10.10
2016,04,17,02,20,10.00
2016,04,17,02,21,10.00
2016,04,17,02,22,10.00
2016,04,17,02,23,10.00
2016,04,17,02,24,10.00
2016,04,17,02,25,10.00
2016,04,17,02,26,10.00
2016,04,17,02,27,10.00
2016,04,17,02,28,10.10
2016,04,17,02,29,10.10
2016,04,17,02,30,10.10
2016,04,17,02,31,10.10
2016,04,17,02,32,10.10
2016,04,17,02,33,10.10
2016,04,17,02,34,10.10
2016,04,17,02,35,10.10
2016,04,17,02,36,10.10
2016,04,17,02,37,10.10
2016,04,17,02,38,10.00
2016,04,17,02,39,10.00
2016,04,17,02,40,10.00
2016,04,17,02,41,10.00
2016,04,17,02,42,10.00
2016,04,17,02,43,10.00
2016,04,17,02,44,10.10
2016,04,17,02,45,10.10
2016,04,17,02,46,10.10
2016,04,17,02,47,10.10
2016,04,17,02,48,10.00
2016,04,17,02,49,10.00
2016,04,17,02,50,10.00
2016,04,17,02,51,10.00
2016,04,17,02,52,10.10
2016,04,17,02,53,10.10
2016,04,17,02,54,10.10
2016,04,17,02,55,10.10
2016,04,17,02,56,10.20
2016,04,17,02,57,10.20
2016,04,17,02,58,10.20
2016,04,17,02,59,10.20
2016,04,17,03,00,10.20
2016,04,17,03,01,10.20
2016,04,17,03,02,10.20
2016,04,17,03,03,10.20
2016,04,17,03,04,10.20
2016,04,17,03,05,10.20
2016,04,17,03,06,10.10
2016,04,17,03,07,10.10
2016,04,17,03,08,10.10
2016,04,17,03,09,10.10
2016,04,17,03,10,10.10
2016,04,17,03,11,10.20
2016,04,17,03,12,10.20
2016,04,17,03,13,10.20
2016,04,17,03,14,10.20
2016,04,17,03,15,10.20
2016,04,17,03,16,10.20
2016,04,17,03,17,10.20
2016,04,17,03,18,10.20
2016,04,17,03,19,10.20
2016,04,17,03,20,10.20
2016,04,17,03,21,10.20
2016,04,17,03,22,10.20
2016,04,17,03,23,10.20
2016,04,17,03,24,10.20
2016,04,17,03,25,10.20
2016,04,17,03,26,10.20
2016,04,17,03,27,10.20
2016,04,17,03,28,10.20
2016,04,17,03,29,10.20
2016,04,17,03,30,10.20
2016,04,17,03,31,10.20
2016,04,17,03,32,10.20
2016,04,17,03,33,10.20
2016,04,17,03,34,10.20
2016,04,17,03,35,10.20
2016,04,17,03,36,10.20
2016,04,17,03,37,10.20
2016,04,17,03,38,10.30
2016,04,17,03,39,10.30
2016,04,17,03,40,10.30
2016,04,17,03,41,10.20
2016,04,17,03,42,10.20
2016,04,17,03,43,10.20
2016,04,17,03,44,10.20
2016,04,17,03,45,10.20
2016,04,17,03,46,10.20
2016,04,17,03,47,10.20
2016,04,17,03,48,10.20
2016,04,17,03,49,10.20
2016,04,17,03,50,10.20
2016,04,17,03,51,10.20
2016,04,17,03,52,10.20
2016,04,17,03,53,10.20
2016,04,17,03,54,10.20
2016,04,17,03,55,10.20
2016,04,17,03,56,10.20
2016,04,17,03,57,10.20
2016,04,17,03,58,10.20
2016,04,17,03,59,10.20
2016,04,17,04,00,10.20
2016,04,17,04,01,10.20
2016,04,17,04,02,10.20
2016,04,17,04,03,10.20
2016,04,17,04,04,10.20
2016,04,17,04,05,10.20
2016,04,17,04,06,10.20
2016,04,17,04,07,10.20
2016,04,17,04,08,10.20
2016,04,17,04,09,10.20
2016,04,17,04,10,10.20
2016,04,17,04,11,10.20
2016,04,17,04,12,10.20
2016,04,17,04,13,10.20
2016,04,17,04,14,10.20
2016,04,17,04,15,10.20
2016,04,17,04,16,10.20
2016,04,17,04,17,10.20
2016,04,17,04,18,10.20
2016,04,17,04,19,10.20
2016,04,17,04,20,10.20
2016,04,17,04,21,10.20
2016,04,17,04,22,10.20
2016,04,17,04,23,10.20
2016,04,17,04,24,10.10
2016,04,17,04,25,10.10
2016,04,17,04,26,10.10
2016,04,17,04,27,10.10
2016,04,17,04,28,10.10
2016,04,17,04,29,10.10
2016,04,17,04,30,10.10
2016,04,17,04,31,10.00
2016,04,17,04,32,10.00
2016,04,17,04,33,10.00
2016,04,17,04,34,10.00
2016,04,17,04,35,10.00
2016,04,17,04,36,10.00
2016,04,17,04,37,10.00
2016,04,17,04,38,10.00
2016,04,17,04,39,10.00
2016,04,17,04,40,10.00
2016,04,17,04,41,10.00
2016,04,17,04,42,10.00
2016,04,17,04,43,10.00
2016,04,17,04,44,10.00
2016,04,17,04,45,10.00
2016,04,17,04,46,10.00
2016,04,17,04,47,10.00
2016,04,17,04,48,10.00
2016,04,17,04,49,10.00
2016,04,17,04,50,10.00
2016,04,17,04,51,10.00
2016,04,17,04,52,10.00
2016,04,17,04,53,10.00
2016,04,17,04,54,10.00
2016,04,17,04,55,10.00
2016,04,17,04,56,10.00
2016,04,17,04,57,10.00
2016,04,17,04,58,10.00
2016,04,17,04,59,10.00
2016,04,17,05,00,10.00
2016,04,17,05,01,10.00
2016,04,17,05,02,10.00
2016,04,17,05,03,10.00
2016,04,17,05,04,10.00
2016,04,17,05,05,10.00
2016,04,17,05,06,10.10
2016,04,17,05,07,10.10
2016,04,17,05,08,10.10
2016,04,17,05,09,10.10
2016,04,17,05,10,10.10
2016,04,17,05,11,10.10
2016,04,17,05,12,10.10
2016,04,17,05,13,10.10
2016,04,17,05,14,10.10
2016,04,17,05,15,10.10
2016,04,17,05,16,10.10
2016,04,17,05,17,10.10
2016,04,17,05,18,10.10
2016,04,17,05,19,10.10
2016,04,17,05,20,10.10
2016,04,17,05,21,10.10
2016,04,17,05,22,10.10
2016,04,17,05,23,10.10
2016,04,17,05,24,10.10
2016,04,17,05,25,10.10
2016,04,17,05,26,10.10
2016,04,17,05,27,10.10
2016,04,17,05,28,10.10
2016,04,17,05,29,10.10
2016,04,17,05,30,10.10
2016,04,17,05,31,10.10
2016,04,17,05,32,10.10
2016,04,17,05,33,10.10
2016,04,17,05,34,10.10
2016,04,17,05,35,10.10
2016,04,17,05,36,10.10
2016,04,17,05,37,10.10
2016,04,17,05,38,10.10
2016,04,17,05,39,10.10
2016,04,17,05,40,10.10
2016,04,17,05,41,10.10
2016,04,17,05,42,10.10
2016,04,17,05,43,10.10
2016,04,17,05,44,10.10
2016,04,17,05,45,10.10
2016,04,17,05,46,10.10
2016,04,17,05,47,10.10
2016,04,17,05,48,10.10
2016,04,17,05,49,10.10
2016,04,17,05,50,10.10
2016,04,17,05,51,10.10
2016,04,17,05,52,10.10
2016,04,17,05,53,10.10
2016,04,17,05,54,10.10
2016,04,17,05,55,10.10
2016,04,17,05,56,10.20
2016,04,17,05,57,10.20
2016,04,17,05,58,10.20
2016,04,17,05,59,10.20
2016,04,17,06,00,10.20
2016,04,17,06,01,10.20
2016,04,17,06,02,10.20
2016,04,17,06,03,10.20
2016,04,17,06,04,10.20
2016,04,17,06,05,10.20
2016,04,17,06,06,10.20
2016,04,17,06,07,10.20
2016,04,17,06,08,10.20
2016,04,17,06,09,10.20
2016,04,17,06,10,10.20
2016,04,17,06,11,10.20
2016,04,17,06,12,10.20
2016,04,17,06,13,10.20
2016,04,17,06,14,10.20
2016,04,17,06,15,10.20
2016,04,17,06,16,10.20
2016,04,17,06,17,10.20
2016,04,17,06,18,10.20
2016,04,17,06,19,10.20
2016,04,17,06,20,10.20
2016,04,17,06,21,10.20
2016,04,17,06,22,10.20
2016,04,17,06,23,10.20
2016,04,17,06,24,10.20
2016,04,17,06,25,10.20
2016,04,17,06,26,10.20
2016,04,17,06,27,10.20
2016,04,17,06,28,10.20
2016,04,17,06,29,10.20
2016,04,17,06,30,10.20
2016,04,17,06,31,10.20
2016,04,17,06,32,10.20
2016,04,17,06,33,10.20
2016,04,17,06,34,10.20
2016,04,17,06,35,10.20
2016,04,17,06,36,10.20
2016,04,17,06,37,10.20
2016,04,17,06,38,10.20
2016,04,17,06,39,10.20
2016,04,17,06,40,10.10
2016,04,17,06,41,10.20
2016,04,17,06,42,10.20
2016,04,17,06,43,10.10
2016,04,17,06,44,10.10
2016,04,17,06,45,10.10
2016,04,17,06,46,10.10
2016,04,17,06,47,10.10
2016,04,17,06,48,10.10
2016,04,17,06,49,10.10
2016,04,17,06,50,10.10
2016,04,17,06,51,10.10
2016,04,17,06,52,10.10
2016,04,17,06,53,10.10
2016,04,17,06,54,10.10
2016,04,17,06,55,10.10
2016,04,17,06,56,10.10
2016,04,17,06,57,10.10
2016,04,17,06,58,10.10
2016,04,17,06,59,10.10
2016,04,17,07,00,10.10
2016,04,17,07,01,10.10
2016,04,17,07,02,10.10
2016,04,17,07,03,10.10
2016,04,17,07,04,10.10
2016,04,17,07,05,10.10
2016,04,17,07,06,10.10
2016,04,17,07,07,10.10
2016,04,17,07,08,10.10
2016,04,17,07,09,10.10
2016,04,17,07,10,10.10
2016,04,17,07,11,10.10
2016,04,17,07,12,10.10
2016,04,17,07,13,10.10
2016,04,17,07,14,10.10
2016,04,17,07,15,10.10
2016,04,17,07,16,10.10
2016,04,17,07,17,10.10
2016,04,17,07,18,10.10
2016,04,17,07,19,10.10
2016,04,17,07,20,10.10
2016,04,17,07,21,10.10
2016,04,17,07,22,10.20
2016,04,17,07,23,10.20
2016,04,17,07,24,10.20
2016,04,17,07,25,10.20
2016,04,17,07,26,10.20
2016,04,17,07,27,10.20
2016,04,17,07,28,10.20
2016,04,17,07,29,10.20
2016,04,17,07,30,10.20
2016,04,17,07,31,10.20
2016,04,17,07,32,10.20
2016,04,17,07,33,10.30
2016,04,17,07,34,10.30
2016,04,17,07,35,10.30
2016,04,17,07,36,10.30
2016,04,17,07,37,10.30
2016,04,17,07,38,10.30
2016,04,17,07,39,10.30
2016,04,17,07,40,10.30
2016,04,17,07,41,10.30
2016,04,17,07,42,10.30
2016,04,17,07,43,10.40
2016,04,17,07,44,10.40
2016,04,17,07,45,10.40
2016,04,17,07,46,10.40
2016,04,17,07,47,10.40
2016,04,17,07,48,10.40
2016,04,17,07,49,10.40
2016,04,17,07,50,10.40
2016,04,17,07,51,10.40
2016,04,17,07,52,10.50
2016,04,17,07,53,10.50
2016,04,17,07,54,10.50
2016,04,17,07,55,10.50
2016,04,17,07,56,10.60
2016,04,17,07,57,10.60
2016,04,17,07,58,10.60
2016,04,17,07,59,10.60
2016,04,17,08,00,10.60
2016,04,17,08,01,10.60
2016,04,17,08,02,10.60
2016,04,17,08,03,10.60
2016,04,17,08,04,10.60
2016,04,17,08,05,10.60
2016,04,17,08,06,10.70
2016,04,17,08,07,10.70
2016,04,17,08,08,10.70
2016,04,17,08,09,10.70
2016,04,17,08,10,10.70
2016,04,17,08,11,10.80
2016,04,17,08,12,10.80
2016,04,17,08,13,10.80
2016,04,17,08,14,10.80
2016,04,17,08,15,10.90
2016,04,17,08,16,10.90
2016,04,17,08,17,10.90
2016,04,17,08,18,11.00
2016,04,17,08,19,11.00
2016,04,17,08,20,11.00
2016,04,17,08,21,11.10
2016,04,17,08,22,11.10
2016,04,17,08,23,11.10
2016,04,17,08,24,11.20
2016,04,17,08,25,11.20
2016,04,17,08,26,11.20
2016,04,17,08,27,11.20
2016,04,17,08,28,11.20
2016,04,17,08,29,11.20
2016,04,17,08,30,11.20
2016,04,17,08,31,11.20
2016,04,17,08,32,11.30
2016,04,17,08,33,11.30
2016,04,17,08,34,11.30
2016,04,17,08,35,11.30
2016,04,17,08,36,11.30
2016,04,17,08,37,11.30
2016,04,17,08,38,11.30
2016,04,17,08,39,11.30
2016,04,17,08,40,11.40
2016,04,17,08,41,11.40
2016,04,17,08,42,11.40
2016,04,17,08,43,11.40
2016,04,17,08,44,11.50
2016,04,17,08,45,11.50
2016,04,17,08,46,11.50
2016,04,17,08,47,11.60
2016,04,17,08,48,11.60
2016,04,17,08,49,11.60
2016,04,17,08,50,11.60
2016,04,17,08,51,11.60
2016,04,17,08,52,11.60
2016,04,17,08,53,11.60
2016,04,17,08,54,11.60
2016,04,17,08,55,11.60
2016,04,17,08,56,11.70
2016,04,17,08,57,11.70
2016,04,17,08,58,11.70
2016,04,17,08,59,11.70
2016,04,17,09,00,11.70
2016,04,17,09,01,11.70
2016,04,17,09,02,11.70
2016,04,17,09,03,11.70
2016,04,17,09,04,11.70
2016,04,17,09,05,11.70
2016,04,17,09,06,11.70
2016,04,17,09,07,11.70
2016,04,17,09,08,11.80
2016,04,17,09,09,11.80
2016,04,17,09,10,11.80
2016,04,17,09,11,11.80
2016,04,17,09,12,11.90
2016,04,17,09,13,11.90
2016,04,17,09,14,11.80
2016,04,17,09,15,11.80
2016,04,17,09,16,11.80
2016,04,17,09,17,11.80
2016,04,17,09,18,11.80
2016,04,17,09,19,11.90
2016,04,17,09,20,11.90
2016,04,17,09,21,11.90
2016,04,17,09,22,11.90
2016,04,17,09,23,12.00
2016,04,17,09,24,12.00
2016,04,17,09,25,12.10
2016,04,17,09,26,12.10
2016,04,17,09,27,12.10
2016,04,17,09,28,12.20
2016,04,17,09,29,12.20
2016,04,17,09,30,12.20
2016,04,17,09,31,12.30
2016,04,17,09,32,12.30
2016,04,17,09,33,12.30
2016,04,17,09,34,12.40
2016,04,17,09,35,12.40
2016,04,17,09,36,12.50
2016,04,17,09,37,12.50
2016,04,17,09,38,12.60
2016,04,17,09,39,12.60
2016,04,17,09,40,12.70
2016,04,17,09,41,12.70
2016,04,17,09,42,12.50
2016,04,17,09,43,12.40
2016,04,17,09,44,12.40
2016,04,17,09,45,12.30
2016,04,17,09,46,12.20
2016,04,17,09,47,12.20
2016,04,17,09,48,12.10
2016,04,17,09,49,12.10
2016,04,17,09,50,12.00
2016,04,17,09,51,12.00
2016,04,17,09,52,11.90
2016,04,17,09,53,11.90
2016,04,17,09,54,11.80
2016,04,17,09,55,11.90
2016,04,17,09,56,11.90
2016,04,17,09,57,11.90
2016,04,17,09,58,11.90
2016,04,17,09,59,12.00
2016,04,17,10,00,12.00
2016,04,17,10,01,12.10
2016,04,17,10,02,12.10
2016,04,17,10,03,12.20
2016,04,17,10,04,12.20
2016,04,17,10,05,12.20
2016,04,17,10,06,12.20
2016,04,17,10,07,12.20
2016,04,17,10,08,12.20
2016,04,17,10,09,12.20
2016,04,17,10,10,12.30
2016,04,17,10,11,12.30
2016,04,17,10,12,12.30
2016,04,17,10,13,12.30
2016,04,17,10,14,12.30
2016,04,17,10,15,12.30
2016,04,17,10,16,12.30
2016,04,17,10,17,12.30
2016,04,17,10,18,12.20
2016,04,17,10,19,12.20
2016,04,17,10,20,12.20
2016,04,17,10,21,12.30
2016,04,17,10,22,12.30
2016,04,17,10,23,12.20
2016,04,17,10,24,12.20
2016,04,17,10,25,12.20
2016,04,17,10,26,12.10
2016,04,17,10,27,12.20
2016,04,17,10,28,12.20
2016,04,17,10,29,12.20
2016,04,17,10,30,12.20
2016,04,17,10,31,12.20
2016,04,17,10,32,12.30
2016,04,17,10,33,12.30
2016,04,17,10,34,12.40
2016,04,17,10,35,12.40
2016,04,17,10,36,12.50
2016,04,17,10,37,12.50
2016,04,17,10,38,12.60
2016,04,17,10,39,12.60
2016,04,17,10,40,12.60
2016,04,17,10,41,12.60
2016,04,17,10,42,12.60
2016,04,17,10,43,12.60
2016,04,17,10,44,12.60
2016,04,17,10,45,12.70
2016,04,17,10,46,12.70
2016,04,17,10,47,12.70
2016,04,17,10,48,12.80
2016,04,17,10,49,12.80
2016,04,17,10,50,12.80
2016,04,17,10,51,12.90
2016,04,17,10,52,12.90
2016,04,17,10,53,12.90
2016,04,17,10,54,13.00
2016,04,17,10,55,13.00
2016,04,17,10,56,13.00
2016,04,17,10,57,12.90
2016,04,17,10,58,12.90
2016,04,17,10,59,12.80
2016,04,17,11,00,12.70
2016,04,17,11,01,12.60
2016,04,17,11,02,12.60
2016,04,17,11,03,12.60
2016,04,17,11,04,12.70
2016,04,17,11,05,12.70
2016,04,17,11,06,12.70
2016,04,17,11,07,12.70
2016,04,17,11,08,12.70
2016,04,17,11,09,12.80
2016,04,17,11,10,12.80
2016,04,17,11,11,12.90
2016,04,17,11,12,13.00
2016,04,17,11,13,13.00
2016,04,17,11,14,13.10
2016,04,17,11,15,13.10
2016,04,17,11,16,13.20
2016,04,17,11,17,13.20
2016,04,17,11,18,13.20
2016,04,17,11,19,13.20
2016,04,17,11,20,13.20
2016,04,17,11,21,13.30
2016,04,17,11,22,13.30
2016,04,17,11,23,13.30
2016,04,17,11,24,13.40
2016,04,17,11,25,13.40
2016,04,17,11,26,13.50
2016,04,17,11,27,13.60
2016,04,17,11,28,13.60
2016,04,17,11,29,13.60
2016,04,17,11,30,13.70
2016,04,17,11,31,13.80
2016,04,17,11,32,13.80
2016,04,17,11,33,13.80
2016,04,17,11,34,13.90
2016,04,17,11,35,13.90
2016,04,17,11,36,14.00
2016,04,17,11,37,14.00
2016,04,17,11,38,14.10
2016,04,17,11,39,14.10
2016,04,17,11,40,14.10
2016,04,17,11,41,14.20
2016,04,17,11,42,14.20
2016,04,17,11,43,14.30
2016,04,17,11,44,14.30
2016,04,17,11,45,14.40
2016,04,17,11,46,14.50
2016,04,17,11,47,14.50
2016,04,17,11,48,14.60
2016,04,17,11,49,14.60
2016,04,17,11,50,14.60
2016,04,17,11,51,14.60
2016,04,17,11,52,14.60
2016,04,17,11,53,14.70
2016,04,17,11,54,14.80
2016,04,17,11,55,14.80
2016,04,17,11,56,14.80
2016,04,17,11,57,14.80
2016,04,17,11,58,14.90
2016,04,17,11,59,15.00
2016,04,17,12,00,15.10
2016,04,17,12,01,15.20
2016,04,17,12,02,15.30
2016,04,17,12,03,15.40
2016,04,17,12,04,15.50
2016,04,17,12,05,15.60
2016,04,17,12,06,15.60
2016,04,17,12,07,15.60
2016,04,17,12,08,15.60
2016,04,17,12,09,15.60
2016,04,17,12,10,15.60
2016,04,17,12,11,15.50
2016,04,17,12,12,15.50
2016,04,17,12,13,15.40
2016,04,17,12,14,15.50
2016,04,17,12,15,15.50
2016,04,17,12,16,15.40
2016,04,17,12,17,15.50
2016,04,17,12,18,15.50
2016,04,17,12,19,15.60
2016,04,17,12,20,15.60
2016,04,17,12,21,15.60
2016,04,17,12,22,15.60
2016,04,17,12,23,15.70
2016,04,17,12,24,15.70
2016,04,17,12,25,15.70
2016,04,17,12,26,15.80
2016,04,17,12,27,15.90
2016,04,17,12,28,16.00
2016,04,17,12,29,16.10
2016,04,17,12,30,16.20
2016,04,17,12,31,16.30
2016,04,17,12,32,16.30
2016,04,17,12,33,16.40
2016,04,17,12,34,16.40
2016,04,17,12,35,16.40
2016,04,17,12,36,16.40
2016,04,17,12,37,16.50
2016,04,17,12,38,16.50
2016,04,17,12,39,16.50
2016,04,17,12,40,16.60
2016,04,17,12,41,16.60
2016,04,17,12,42,16.60
2016,04,17,12,43,16.60
2016,04,17,12,44,16.60
2016,04,17,12,45,16.60
2016,04,17,12,46,16.60
2016,04,17,12,47,16.60
2016,04,17,12,48,16.60
2016,04,17,12,49,16.60
2016,04,17,12,50,16.60
2016,04,17,12,51,16.60
2016,04,17,12,52,16.60
2016,04,17,12,53,16.50
2016,04,17,12,54,16.50
2016,04,17,12,55,16.50
2016,04,17,12,56,16.40
2016,04,17,12,57,16.40
2016,04,17,12,58,16.30
2016,04,17,12,59,16.30
2016,04,17,13,00,16.30
2016,04,17,13,01,16.30
2016,04,17,13,02,16.20
2016,04,17,13,03,16.20
2016,04,17,13,04,16.10
2016,04,17,13,05,16.10
2016,04,17,13,06,16.10
2016,04,17,13,07,16.10
2016,04,17,13,08,16.10
2016,04,17,13,09,16.20
2016,04,17,13,10,16.20
2016,04,17,13,11,16.30
2016,04,17,13,12,16.30
2016,04,17,13,13,16.40
2016,04,17,13,14,16.50
2016,04,17,13,15,16.60
2016,04,17,13,16,16.70
2016,04,17,13,17,16.80
2016,04,17,13,18,16.80
2016,04,17,13,19,16.90
2016,04,17,13,20,16.90
2016,04,17,13,21,17.00
2016,04,17,13,22,17.00
2016,04,17,13,23,17.10
2016,04,17,13,24,17.10
2016,04,17,13,25,17.20
2016,04,17,13,26,17.20
2016,04,17,13,27,17.20
2016,04,17,13,28,17.20
2016,04,17,13,29,17.20
2016,04,17,13,30,17.30
2016,04,17,13,31,17.30
2016,04,17,13,32,17.40
2016,04,17,13,33,17.40
2016,04,17,13,34,17.40
2016,04,17,13,35,17.50
2016,04,17,13,36,17.60
2016,04,17,13,37,17.60
2016,04,17,13,38,17.70
2016,04,17,13,39,17.70
2016,04,17,13,40,17.70
2016,04,17,13,41,17.70
2016,04,17,13,42,17.60
2016,04,17,13,43,17.60
2016,04,17,13,44,17.60
2016,04,17,13,45,17.60
2016,04,17,13,46,17.60
2016,04,17,13,47,17.50
2016,04,17,13,48,17.60
2016,04,17,13,49,17.50
2016,04,17,13,50,17.50
2016,04,17,13,51,17.40
2016,04,17,13,52,17.40
2016,04,17,13,53,17.30
2016,04,17,13,54,17.30
2016,04,17,13,55,17.30
2016,04,17,13,56,17.30
2016,04,17,13,57,17.30
2016,04,17,13,58,17.30
2016,04,17,13,59,17.40
2016,04,17,14,00,17.40
2016,04,17,14,01,17.40
2016,04,17,14,02,17.50
2016,04,17,14,03,17.50
2016,04,17,14,04,17.50
2016,04,17,14,05,17.60
2016,04,17,14,06,17.60
2016,04,17,14,07,17.70
2016,04,17,14,08,17.70
2016,04,17,14,09,17.70
2016,04,17,14,10,17.70
2016,04,17,14,11,17.70
2016,04,17,14,12,17.70
2016,04,17,14,13,17.70
2016,04,17,14,14,17.70
2016,04,17,14,15,17.70
2016,04,17,14,16,17.80
2016,04,17,14,17,17.80
2016,04,17,14,18,17.80
2016,04,17,14,19,17.80
2016,04,17,14,20,17.80
2016,04,17,14,21,17.80
2016,04,17,14,22,17.80
2016,04,17,14,23,17.90
2016,04,17,14,24,17.90
2016,04,17,14,25,17.90
2016,04,17,14,26,17.90
2016,04,17,14,27,17.90
2016,04,17,14,28,17.90
2016,04,17,14,29,17.90
2016,04,17,14,30,18.00
2016,04,17,14,31,18.00
2016,04,17,14,32,18.00
2016,04,17,14,33,18.00
2016,04,17,14,34,18.10
2016,04,17,14,35,18.10
2016,04,17,14,36,18.20
2016,04,17,14,37,18.20
2016,04,17,14,38,18.30
2016,04,17,14,39,18.30
2016,04,17,14,40,18.40
2016,04,17,14,41,18.50
2016,04,17,14,42,18.60
2016,04,17,14,43,18.60
2016,04,17,14,44,18.70
2016,04,17,14,45,18.70
2016,04,17,14,46,18.80
2016,04,17,14,47,18.80
2016,04,17,14,48,18.90
2016,04,17,14,49,19.00
2016,04,17,14,50,19.10
2016,04,17,14,51,19.20
2016,04,17,14,52,19.20
2016,04,17,14,53,19.30
2016,04,17,14,54,19.30
2016,04,17,14,55,19.40
2016,04,17,14,56,19.50
2016,04,17,14,57,19.50
2016,04,17,14,58,19.50
2016,04,17,14,59,19.40
2016,04,17,15,00,19.40
2016,04,17,15,01,19.40
2016,04,17,15,02,19.50
2016,04,17,15,03,19.50
2016,04,17,15,04,19.60
2016,04,17,15,05,19.70
2016,04,17,15,06,19.70
2016,04,17,15,07,19.70
2016,04,17,15,08,19.70
2016,04,17,15,09,19.70
2016,04,17,15,10,19.70
2016,04,17,15,11,19.70
2016,04,17,15,12,19.80
2016,04,17,15,13,19.80
2016,04,17,15,14,19.90
2016,04,17,15,15,20.00
2016,04,17,15,16,20.10
2016,04,17,15,17,20.20
2016,04,17,15,18,20.20
2016,04,17,15,19,20.20
2016,04,17,15,20,20.20
2016,04,17,15,21,20.30
2016,04,17,15,22,20.30
2016,04,17,15,23,20.30
2016,04,17,15,24,20.30
2016,04,17,15,25,20.20
2016,04,17,15,26,20.10
2016,04,17,15,27,20.10
2016,04,17,15,28,20.10
2016,04,17,15,29,20.00
2016,04,17,15,30,20.00
2016,04,17,15,31,19.90
2016,04,17,15,32,19.90
2016,04,17,15,33,19.80
2016,04,17,15,34,19.80
2016,04,17,15,35,19.80
2016,04,17,15,36,19.80
2016,04,17,15,37,19.80
2016,04,17,15,38,19.80
2016,04,17,15,39,19.80
2016,04,17,15,40,19.80
2016,04,17,15,41,19.80
2016,04,17,15,42,19.90
2016,04,17,15,43,19.90
2016,04,17,15,44,20.00
2016,04,17,15,45,20.00
2016,04,17,15,46,20.10
2016,04,17,15,47,20.20
2016,04,17,15,48,20.20
2016,04,17,15,49,20.20
2016,04,17,15,50,20.20
2016,04,17,15,51,20.10
2016,04,17,15,52,20.10
2016,04,17,15,53,20.20
2016,04,17,15,54,20.20
2016,04,17,15,55,20.20
2016,04,17,15,56,20.20
2016,04,17,15,57,20.20
2016,04,17,15,58,20.20
2016,04,17,15,59,20.20
2016,04,17,16,00,20.20
2016,04,17,16,01,20.20
2016,04,17,16,02,20.20
2016,04,17,16,03,20.20
2016,04,17,16,04,20.30
2016,04,17,16,05,20.30
2016,04,17,16,06,20.30
2016,04,17,16,07,20.30
2016,04,17,16,08,20.30
2016,04,17,16,09,20.30
2016,04,17,16,10,20.30
2016,04,17,16,11,20.30
2016,04,17,16,12,20.30
2016,04,17,16,13,20.40
2016,04,17,16,14,20.40
2016,04,17,16,15,20.40
2016,04,17,16,16,20.40
2016,04,17,16,17,20.40
2016,04,17,16,18,20.40
2016,04,17,16,19,20.40
2016,04,17,16,20,20.40
2016,04,17,16,21,20.40
2016,04,17,16,22,20.30
2016,04,17,16,23,20.20
2016,04,17,16,24,20.20
2016,04,17,16,25,20.10
2016,04,17,16,26,20.10
2016,04,17,16,27,20.10
2016,04,17,16,28,20.10
2016,04,17,16,29,20.10
2016,04,17,16,30,20.10
2016,04,17,16,31,20.10
2016,04,17,16,32,20.10
2016,04,17,16,33,20.10
2016,04,17,16,34,20.10
2016,04,17,16,35,20.10
2016,04,17,16,36,20.20
2016,04,17,16,37,20.30
2016,04,17,16,38,20.30
2016,04,17,16,39,20.40
2016,04,17,16,40,20.50
2016,04,17,16,41,20.60
2016,04,17,16,42,20.70
2016,04,17,16,43,20.70
2016,04,17,16,44,20.80
2016,04,17,16,45,20.80
2016,04,17,16,46,20.90
2016,04,17,16,47,20.90
2016,04,17,16,48,20.90
2016,04,17,16,49,20.90
2016,04,17,16,50,21.00
2016,04,17,16,51,21.00
2016,04,17,16,52,21.00
2016,04,17,16,53,20.90
2016,04,17,16,54,20.80
2016,04,17,16,55,20.70
2016,04,17,16,56,20.60
2016,04,17,16,57,20.60
2016,04,17,16,58,20.50
2016,04,17,16,59,20.40
2016,04,17,17,00,20.40
2016,04,17,17,01,20.30
2016,04,17,17,02,20.30
2016,04,17,17,03,20.20
2016,04,17,17,04,20.20
2016,04,17,17,05,20.20
2016,04,17,17,06,20.20
2016,04,17,17,07,20.10
2016,04,17,17,08,20.10
2016,04,17,17,09,20.10
2016,04,17,17,10,20.10
2016,04,17,17,11,20.20
2016,04,17,17,12,20.20
2016,04,17,17,13,20.20
2016,04,17,17,14,20.10
2016,04,17,17,15,20.10
2016,04,17,17,16,20.10
2016,04,17,17,17,20.10
2016,04,17,17,18,20.10
2016,04,17,17,19,20.00
2016,04,17,17,20,20.00
2016,04,17,17,21,20.00